Location: San Antonio
(29.4240°N, 98.4930°W)
Time: 09:55:12
(UTC-06:00)

ISS - All Passes

Search period start: 20 February 2017 00:00
Search period end: 02 March 2017 00:00
Orbit: 399 x 408 km, 51.6° (Epoch: 20 February)

Date Brightness Start Highest point End Pass type
(mag) Time Alt. Az. Time Alt. Az. Time Alt. Az.
20 Feb - 09:38:58 10° SW 09:42:13 68° NW 09:45:31 10° NE daylight
20 Feb - 17:47:48 10° NW 17:51:04 82° NE 17:54:18 10° SE daylight
21 Feb - 08:46:38 10° SSW 08:49:48 47° SE 08:52:58 10° NE daylight
21 Feb - 10:24:49 10° WNW 10:26:26 13° NW 10:28:03 10° N daylight
21 Feb - 16:55:33 10° NNW 16:58:34 34° NE 17:01:34 10° ESE daylight
21 Feb - 18:33:10 10° W 18:34:45 13° SW 18:36:19 10° SSW daylight
22 Feb - 07:54:56 10° S 07:57:25 20° SE 07:59:56 10° ENE daylight
22 Feb - 09:31:02 10° W 09:33:46 24° NW 09:36:30 10° NNE daylight
22 Feb - 16:03:40 10° N 16:05:57 17° NE 16:08:14 10° E daylight
22 Feb - 17:39:32 10° WNW 17:42:25 29° SW 17:45:17 10° S daylight
23 Feb - 08:37:59 10° WSW 08:41:11 50° NW 08:44:24 10° NNE daylight
23 Feb - 16:46:45 10° NW 16:50:01 74° SW 16:53:15 10° SE daylight
24 Feb - 07:45:27 10° SSW 07:48:41 64° SE 07:51:57 10° NE daylight
24 Feb - 09:24:36 10° NW 09:25:26 11° NW 09:26:16 10° NNW daylight
24 Feb - 15:54:20 10° NNW 15:57:30 44° NE 16:00:38 10° ESE daylight
25 Feb - 06:53:29 10° S 06:56:16 26° SE 06:59:04 10° ENE daylight
25 Feb - 08:30:14 10° W 08:32:42 19° NW 08:35:10 10° N daylight
25 Feb - 15:02:16 10° NNW 15:04:52 21° NE 15:07:27 10° E daylight
25 Feb - 16:38:38 10° WNW 16:41:14 22° SW 16:43:50 10° S daylight
26 Feb - 06:02:41 10° SSE 06:03:54 12° SE 06:05:07 10° ESE visible
26 Feb - 07:36:57 10° WSW 07:40:02 38° NW 07:43:09 10° NNE daylight
26 Feb - 14:10:51 10° NNE 14:12:08 12° NE 14:13:25 10° ENE daylight
26 Feb - 15:45:37 10° NW 15:48:49 54° SW 15:52:00 10° SSE daylight
27 Feb - 06:44:12 10° SW 06:47:29 87° SE 06:50:47 10° NE daylight
27 Feb - 14:53:03 10° NW 14:56:17 59° NE 14:59:31 10° SE daylight
28 Feb - 05:52:00 10° SSW 05:55:00 34° SE 05:58:00 10° ENE visible
28 Feb - 07:29:23 10° WNW 07:31:31 16° NW 07:33:38 10° N daylight
28 Feb - 14:00:50 10° NNW 14:03:40 26° NE 14:06:29 10° E daylight
28 Feb - 15:37:42 10° W 15:39:56 17° SW 15:42:11 10° S daylight
01 Mar - 05:00:36 10° SSE 05:02:34 15° SE 05:04:33 10° E visible
01 Mar - 06:35:50 10° WSW 06:38:47 30° NW 06:41:45 10° NNE visible
01 Mar - 13:09:04 10° N 13:10:55 14° NE 13:12:47 10° ENE daylight
01 Mar - 14:44:25 10° WNW 14:47:31 40° SW 14:50:34 10° SSE daylight
